TimeCST,TemperatureF,Dew PointF,Humidity,Sea Level PressureIn,VisibilityMPH,Wind Direction,Wind SpeedMPH,Gust SpeedMPH,PrecipitationIn,Events,Conditions,WindDirDegrees,DateUTC
12:15 AM,1.2,-2.6,84,30.35,10.0,Calm,Calm,-,N/A,,Clear,0,2013-03-02 06:15:00
12:35 AM,3.2,0.1,87,30.34,10.0,Calm,Calm,-,N/A,,Clear,0,2013-03-02 06:35:00
12:55 AM,1.2,-2.6,84,30.34,10.0,Calm,Calm,-,N/A,,Clear,0,2013-03-02 06:55:00
1:15 AM,1.0,-2.6,85,30.35,10.0,Calm,Calm,-,N/A,,Clear,0,2013-03-02 07:15:00
1:35 AM,0.1,-3.5,85,30.34,10.0,Calm,Calm,-,N/A,,Clear,0,2013-03-02 07:35:00
1:55 AM,1.2,-2.2,86,30.34,10.0,Calm,Calm,-,N/A,,Clear,0,2013-03-02 07:55:00
2:15 AM,1.9,-1.5,86,30.34,10.0,Calm,Calm,-,N/A,,Clear,0,2013-03-02 08:15:00
2:35 AM,-0.0,-3.8,84,30.33,10.0,Calm,Calm,-,N/A,,Clear,0,2013-03-02 08:35:00
2:55 AM,-0.6,-4.4,84,30.32,10.0,Calm,Calm,-,N/A,,Clear,0,2013-03-02 08:55:00
3:15 AM,-1.3,-5.1,84,30.32,10.0,Calm,Calm,-,N/A,,Clear,0,2013-03-02 09:15:00
3:55 AM,-1.1,-4.9,84,30.32,10.0,Calm,Calm,-,N/A,,Scattered Clouds,0,2013-03-02 09:55:00
4:15 AM,-1.1,-4.7,85,30.32,10.0,Calm,Calm,-,N/A,,Overcast,0,2013-03-02 10:15:00
4:35 AM,-1.3,-4.9,85,30.32,10.0,Calm,Calm,-,N/A,,Overcast,0,2013-03-02 10:35:00
4:55 AM,0.1,-3.5,85,30.32,10.0,Calm,Calm,-,N/A,,Overcast,0,2013-03-02 10:55:00
5:15 AM,0.9,-2.7,85,30.32,10.0,Calm,Calm,-,N/A,,Overcast,0,2013-03-02 11:15:00
5:55 AM,0.5,-2.9,85,30.32,4.0,Calm,Calm,-,N/A,,Mostly Cloudy,0,2013-03-02 11:55:00
6:15 AM,1.2,-2.4,85,30.31,4.0,Calm,Calm,-,N/A,,Overcast,0,2013-03-02 12:15:00
6:35 AM,0.3,-3.5,84,30.32,10.0,Calm,Calm,-,N/A,,Overcast,0,2013-03-02 12:35:00
6:55 AM,0.9,-2.9,84,30.32,1.0,Calm,Calm,-,N/A,,Overcast,0,2013-03-02 12:55:00
7:15 AM,1.8,-1.8,85,30.31,1.2,Calm,Calm,-,N/A,,Overcast,0,2013-03-02 13:15:00
7:35 AM,3.2,-0.2,86,30.30,1.0,Calm,Calm,-,N/A,,Overcast,0,2013-03-02 13:35:00
7:55 AM,4.8,1.8,87,30.31,0.5,Calm,Calm,-,N/A,Fog,Light Freezing Fog,0,2013-03-02 13:55:00
8:15 AM,5.0,2.1,88,30.31,4.0,Calm,Calm,-,N/A,,Mostly Cloudy,0,2013-03-02 14:15:00
8:35 AM,5.5,2.7,88,30.30,4.0,Calm,Calm,-,N/A,,Mostly Cloudy,0,2013-03-02 14:35:00
8:55 AM,7.3,4.3,87,30.30,5.0,Calm,Calm,-,N/A,,Mostly Cloudy,0,2013-03-02 14:55:00
9:15 AM,10.0,7.7,90,30.29,5.0,Calm,Calm,-,N/A,,Mostly Cloudy,0,2013-03-02 15:15:00
9:35 AM,11.5,9.0,90,30.28,7.0,Calm,Calm,-,N/A,,Mostly Cloudy,0,2013-03-02 15:35:00
9:55 AM,16.2,14.7,94,30.28,7.0,South,4.6,-,N/A,,Scattered Clouds,180,2013-03-02 15:55:00
10:15 AM,18.7,17.4,95,30.27,10.0,South,5.8,-,N/A,,Scattered Clouds,170,2013-03-02 16:15:00
10:35 AM,20.3,19.0,95,30.28,10.0,South,5.8,-,N/A,,Mostly Cloudy,190,2013-03-02 16:35:00
10:55 AM,21.6,20.5,96,30.27,10.0,South,3.5,-,N/A,,Overcast,170,2013-03-02 16:55:00
11:15 AM,22.6,21.6,96,30.26,10.0,SSE,8.1,-,N/A,,Overcast,160,2013-03-02 17:15:00
11:35 AM,23.7,22.8,96,30.25,10.0,SSE,6.9,-,N/A,,Overcast,160,2013-03-02 17:35:00
11:55 AM,24.4,22.8,94,30.25,10.0,SSE,9.2,-,N/A,,Overcast,150,2013-03-02 17:55:00
12:15 PM,26.1,22.8,88,30.24,10.0,South,8.1,-,N/A,,Overcast,170,2013-03-02 18:15:00
12:35 PM,27.7,22.3,80,30.23,10.0,South,9.2,-,N/A,,Overcast,170,2013-03-02 18:35:00
12:55 PM,29.1,22.6,77,30.22,10.0,SSE,8.1,-,N/A,,Overcast,160,2013-03-02 18:55:00
1:15 PM,30.2,23.2,75,30.20,10.0,SSE,9.2,-,N/A,,Overcast,160,2013-03-02 19:15:00
1:35 PM,30.6,23.2,74,30.19,10.0,South,9.2,-,N/A,,Overcast,170,2013-03-02 19:35:00
1:55 PM,31.8,22.6,69,30.18,10.0,SSE,10.4,-,N/A,,Overcast,160,2013-03-02 19:55:00
2:15 PM,31.6,21.7,67,30.17,10.0,SSE,10.4,-,N/A,,Overcast,160,2013-03-02 20:15:00
2:35 PM,32.0,22.1,67,30.16,10.0,SSE,12.7,-,N/A,,Overcast,160,2013-03-02 20:35:00
2:55 PM,32.4,22.1,66,30.16,10.0,SSE,9.2,-,N/A,,Overcast,160,2013-03-02 20:55:00
3:15 PM,32.4,22.6,67,30.15,10.0,SSE,11.5,-,N/A,,Overcast,150,2013-03-02 21:15:00
3:35 PM,32.9,23.2,67,30.15,10.0,SSE,10.4,-,N/A,,Overcast,150,2013-03-02 21:35:00
3:55 PM,33.4,24.1,69,30.14,10.0,SSE,11.5,-,N/A,,Overcast,150,2013-03-02 21:55:00
4:15 PM,33.6,23.7,67,30.14,10.0,SSE,11.5,-,N/A,,Scattered Clouds,150,2013-03-02 22:15:00
4:35 PM,34.2,23.4,65,30.13,10.0,SSE,12.7,-,N/A,,Mostly Cloudy,150,2013-03-02 22:35:00
4:55 PM,33.6,24.1,68,30.13,10.0,SSE,11.5,-,N/A,,Scattered Clouds,160,2013-03-02 22:55:00
5:15 PM,32.4,23.7,70,30.13,10.0,SSE,11.5,-,N/A,,Clear,150,2013-03-02 23:15:00
5:35 PM,32.0,23.9,72,30.12,10.0,SSE,9.2,-,N/A,,Clear,150,2013-03-02 23:35:00
5:55 PM,31.1,24.4,76,30.12,10.0,SSE,10.4,-,N/A,,Clear,150,2013-03-02 23:55:00
6:15 PM,31.1,24.3,76,30.12,10.0,SSE,10.4,-,N/A,,Clear,150,2013-03-03 00:15:00
6:35 PM,31.3,24.3,75,30.10,10.0,SSE,10.4,-,N/A,,Clear,150,2013-03-03 00:35:00
6:55 PM,30.7,24.6,78,30.10,10.0,SSE,10.4,-,N/A,,Clear,150,2013-03-03 00:55:00
7:15 PM,30.6,24.6,79,30.10,10.0,SSE,9.2,-,N/A,,Clear,160,2013-03-03 01:15:00
7:35 PM,30.6,24.4,78,30.10,10.0,SSE,10.4,-,N/A,,Clear,160,2013-03-03 01:35:00
7:55 PM,30.2,24.4,79,30.10,10.0,SSE,9.2,-,N/A,,Clear,160,2013-03-03 01:55:00
8:15 PM,30.2,24.4,79,30.09,10.0,SSE,11.5,-,N/A,,Clear,160,2013-03-03 02:15:00
8:35 PM,30.2,24.6,80,30.08,10.0,SSE,10.4,-,N/A,,Clear,160,2013-03-03 02:35:00
8:55 PM,30.0,24.6,80,30.07,10.0,SSE,10.4,-,N/A,,Clear,160,2013-03-03 02:55:00
9:15 PM,30.2,24.6,80,30.07,10.0,South,9.2,-,N/A,,Clear,170,2013-03-03 03:15:00
9:35 PM,30.2,24.8,80,30.07,10.0,SSE,9.2,-,N/A,,Clear,160,2013-03-03 03:35:00
9:55 PM,30.2,25.2,82,30.07,10.0,SSE,8.1,-,N/A,,Clear,160,2013-03-03 03:55:00
10:15 PM,30.2,25.5,83,30.07,10.0,SSE,6.9,-,N/A,,Clear,150,2013-03-03 04:15:00
10:35 PM,30.0,25.3,83,30.06,10.0,SSE,9.2,-,N/A,,Clear,150,2013-03-03 04:35:00
10:55 PM,29.8,25.3,83,30.05,10.0,SSE,8.1,-,N/A,,Clear,150,2013-03-03 04:55:00
11:15 PM,29.7,25.3,84,30.05,10.0,SSE,9.2,-,N/A,,Clear,160,2013-03-03 05:15:00
11:35 PM,29.7,25.3,84,30.04,10.0,SSE,9.2,-,N/A,,Clear,150,2013-03-03 05:35:00
11:55 PM,29.7,25.3,84,30.03,10.0,SSE,10.4,-,N/A,,Clear,160,2013-03-03 05:55:00